Temperature
7 6 6 8 9 10 11 11 12 13 16 15 15 16 17 18 18 18 19 20 20 20 20 20 20 19 19 18 17 16 15 14 13 13 13 13 13 12 12 12 12 12 12 12
6 6 8 9 10 10 10 10 11 13 15 15 15 15 16 17 18 18 19 20 20 20 21 20 20 19 19 18 17 16 15 14 14 14 14 14 13 13 12 12 12 12 12 12
6 7 9 9 9 9 9 10 10 11 13 14 14 14 15 17 18 19 19 20 20 21 21 21 20 20 19 18 17 16 16 15 14 14 13 12 12 11 12 12 12 12 12 12
7 8 9 8 8 9 8 10 11 11 11 11 12 11 14 16 17 18 18 19 20 20 21 21 20 20 19 19 18 17 16 15 15 14 13 13 13 13 15 14 14 13 12 12
6 8 8 8 9 9 9 10 10 10 10 10 11 11 13 16 16 17 18 19 20 20 20 21 21 20 19 19 18 17 16 15 15 14 14 14 14 15 14 13 13 13 12 12
6 7 7 8 9 10 10 10 9 9 9 9 10 10 11 15 16 17 18 19 19 20 20 20 20 20 19 19 18 17 16 15 15 14 14 14 15 15 14 13 13 13 13 12
6 7 7 8 7 9 9 8 7 7 8 8 11 11 12 15 17 17 18 18 19 19 19 20 20 20 19 19 18 17 16 15 15 14 13 14 14 14 14 15 14 14 13 13
4 5 7 7 7 7 8 7 7 8 8 10 11 11 13 15 17 18 18 19 19 19 19 19 19 19 19 18 18 17 16 16 15 14 14 14 14 14 14 14 14 14 15 15
3 4 7 7 8 8 7 7 8 8 9 10 11 13 14 15 16 16 17 18 18 18 18 19 19 19 18 18 18 17 17 16 15 14 14 14 13 13 14 14 13 13 14 14
3 3 5 7 7 7 7 7 7 7 7 9 11 12 13 14 15 16 16 16 17 18 18 18 18 18 18 18 18 17 17 16 16 15 14 14 14 14 14 13 13 13 13 13
3 2 4 6 5 6 6 6 6 6 7 8 9 11 14 14 15 15 15 16 16 17 17 17 17 18 18 17 17 17 16 16 15 15 15 14 14 13 13 13 13 13 12 12
3 2 3 4 5 5 5 5 5 5 6 8 8 11 14 14 14 15 14 15 16 16 16 16 16 17 17 17 17 16 16 16 15 15 15 15 14 14 13 13 13 13 12 12
3 2 2 4 4 4 4 4 5 5 6 7 8 10 12 12 13 14 14 15 15 15 15 15 15 15 16 16 16 16 16 16 15 15 15 14 14 14 13 13 13 12 12 11
4 1 1 2 2 3 3 4 4 4 5 6 8 9 10 11 11 12 12 13 14 14 14 14 14 14 14 15 15 15 15 15 15 15 15 15 14 14 14 13 13 12 12 11
2 1 2 3 4 4 4 4 4 4 5 5 7 8 9 9 10 11 11 12 12 12 13 13 13 13 13 13 14 14 14 14 14 15 15 15 15 14 13 13 12 12 11 11
2 1 2 2 4 5 4 5 5 5 5 6 7 8 8 8 9 9 10 10 10 11 11 11 11 12 12 12 12 13 13 13 14 14 14 14 14 13 13 13 12 12 11 11
1 1 1 1 4 4 3 5 5 5 5 5 6 7 7 7 8 8 8 9 9 9 9 9 10 11 11 11 12 12 12 12 13 13 13 14 13 13 13 13 12 12 11 11
1 0 0 1 2 2 4 5 6 5 5 5 5 6 6 6 7 7 7 8 8 8 9 9 9 10 10 11 11 11 12 12 12 12 12 13 13 13 13 12 12 12 11 11
2 1 0 1 1 2 4 4 4 4 4 4 4 5 6 6 7 7 7 7 7 8 8 9 9 9 9 10 10 11 11 11 11 12 12 12 12 12 12 12 12 11 11 10
3 1 0 0 1 2 3 4 4 4 3 3 4 4 5 5 5 5 6 6 7 7 8 8 8 9 9 9 10 10 11 11 11 11 12 12 12 12 12 12 11 11 11 10
1 0 -0 -0 0 2 3 4 4 3 2 3 3 4 4 4 4 5 5 6 6 7 7 8 8 8 8 9 9 10 10 10 11 11 11 11 11 12 12 11 11 10 10 10
0 -0 -0 -0 0 1 3 3 2 2 3 3 3 3 3 3 4 4 5 5 5 6 7 7 7 8 8 8 9 9 10 10 10 10 11 11 11 11 11 11 10 10 10 9
1 1 0 0 1 2 3 3 2 2 2 2 2 2 3 3 3 4 4 5 5 5 6 6 7 7 7 8 8 9 9 10 10 10 10 10 10 10 10 10 10 10 9 9
1 2 1 1 2 2 3 2 2 2 2 2 2 2 2 2 2 3 4 4 4 4 5 6 6 7 7 7 8 8 9 9 9 9 9 9 9 9 9 9 10 9 9 9
1 1 0 0 1 1 2 2 2 1 2 2 2 1 1 1 2 2 2 3 3 4 4 5 6 6 7 7 7 8 8 9 9 9 9 9 9 9 9 9 9 9 9 9
0 -0 -1 -0 1 0 1 1 1 1 1 1 1 1 1 1 1 1 2 2 3 3 3 4 5 6 6 6 7 7 8 8 8 8 8 8 8 8 8 8 8 8 8 8
Wind_Speed
10 11 16 20 22 22 19 19 20 20 17 19 23 23 20 18 16 16 16 17 17 16 16 16 16 16 16 17 20 20 19 18 16 14 13 12 12 10 9 8 12 15 15 16
11 18 22 20 21 22 23 23 22 17 16 17 18 21 19 19 18 15 15 15 16 16 16 17 16 17 17 19 20 21 21 20 18 15 14 11 10 8 8 7 10 15 15 16
19 16 17 19 21 22 23 23 21 17 13 14 13 17 18 15 19 18 16 15 14 16 16 17 18 17 17 19 20 21 22 21 20 17 12 11 9 8 8 11 11 12 15 15
14 18 18 18 19 19 20 19 19 19 15 9 10 10 15 16 17 20 19 17 16 15 15 15 17 17 18 18 18 20 22 21 20 19 17 18 16 14 13 12 10 11 13 14
11 11 15 19 20 18 15 13 16 17 15 13 12 10 9 15 19 20 18 18 17 15 15 15 15 17 17 17 18 19 20 21 20 21 20 19 14 12 9 10 12 13 12 13
18 15 11 12 14 15 14 12 12 13 12 16 18 14 9 13 19 18 19 18 17 16 14 14 14 15 15 16 17 17 19 20 21 22 21 20 18 15 14 14 15 14 11 12
12 15 13 10 10 11 12 9 7 9 11 10 13 14 10 10 13 14 15 16 15 14 13 12 12 14 16 17 18 18 19 19 21 22 22 22 20 18 18 16 16 14 12 12
6 8 7 8 11 9 13 12 9 6 7 7 11 13 9 12 11 10 11 12 13 14 13 13 13 13 15 17 19 19 20 18 20 22 22 21 19 15 14 15 13 15 13 14
5 6 6 7 9 10 8 12 9 6 7 6 8 9 9 9 11 11 9 9 10 12 12 12 12 13 14 16 18 20 20 18 19 21 21 20 20 17 15 14 13 13 11 12
4 7 9 7 6 9 8 5 5 7 6 7 7 10 7 11 11 11 9 7 7 7 9 9 10 11 12 14 15 16 18 18 17 19 20 18 18 18 15 13 14 14 14 13
5 6 7 5 4 5 6 7 5 5 5 4 4 5 6 7 9 9 8 8 7 6 6 7 7 7 9 10 12 14 15 15 16 18 17 17 17 16 15 14 14 14 13 14
4 4 6 7 5 3 4 5 7 6 5 5 5 5 2 1 3 6 7 6 6 5 4 4 5 6 6 9 10 11 13 14 14 16 17 17 16 16 16 15 15 14 14 14
4 3 6 4 1 1 2 4 6 7 5 5 6 6 5 7 3 2 1 3 4 5 4 3 4 5 5 6 7 8 10 11 11 12 15 16 16 16 17 16 14 14 14 14
6 4 5 6 6 5 7 7 6 7 7 7 9 9 8 9 7 5 3 2 1 3 4 3 3 4 4 5 5 6 7 8 9 10 12 14 16 16 16 15 14 14 14 14
3 5 8 12 13 11 11 10 8 10 10 8 8 9 7 9 7 4 4 3 3 2 3 3 3 3 3 3 4 4 4 6 7 9 11 11 11 12 13 13 13 13 13 13
3 5 8 11 11 10 11 10 10 11 10 11 12 10 5 7 7 6 5 5 4 4 3 3 2 2 2 3 3 4 4 5 6 8 9 9 10 10 11 12 12 12 12 12
3 4 4 6 9 10 7 8 10 9 7 8 9 6 6 5 7 6 6 7 6 5 3 3 2 1 1 2 3 5 5 5 6 7 8 9 9 10 10 11 12 12 12 11
6 5 4 5 7 6 2 2 3 5 4 3 5 5 5 6 6 3 5 6 6 5 4 3 3 2 0 1 2 3 4 5 6 7 7 8 9 9 10 11 11 11 10 11
9 7 4 4 5 7 3 3 4 4 2 3 5 6 7 8 4 3 6 7 6 4 3 3 3 2 1 1 2 3 4 5 6 6 7 8 9 10 10 11 11 9 9 9
7 7 6 5 5 4 3 7 7 3 2 5 5 5 7 7 2 4 8 9 8 6 5 4 3 1 1 1 2 3 4 5 6 6 6 6 8 9 10 10 9 8 8 9
3 5 7 8 6 4 4 8 5 0 2 5 6 6 6 4 4 7 8 7 7 7 5 4 3 1 0 1 2 3 3 5 5 5 6 6 7 8 9 8 8 9 9 9
4 4 4 4 6 4 5 4 2 3 4 5 6 7 7 7 8 8 8 7 7 7 6 4 3 3 1 1 2 2 2 3 5 6 6 6 6 7 7 9 8 9 10 10
4 4 3 4 4 4 3 3 3 3 5 5 6 7 8 8 9 9 8 8 7 7 6 4 3 3 2 0 1 2 1 4 6 7 7 7 7 7 7 9 9 9 9 8
5 4 4 5 6 6 6 5 5 6 7 7 6 7 8 9 10 9 8 7 7 7 6 5 4 3 3 2 1 1 2 4 6 7 7 7 7 7 6 6 7 8 8 8
7 5 6 8 8 8 6 6 7 9 9 9 8 7 8 9 10 9 9 8 7 6 6 5 4 4 4 2 0 2 3 5 5 6 7 7 7 7 7 5 4 5 5 8
7 7 7 8 6 6 8 8 9 10 9 10 10 10 9 8 9 10 9 8 7 6 6 5 4 4 4 2 1 2 4 5 6 6 6 6 6 6 7 7 7 9 6 9
Wind_Direction
227 219 224 224 225 236 244 243 240 241 234 228 231 234 232 230 233 228 220 217 218 216 204 199 194 186 179 174 173 173 173 174 171 174 176 177 179 175 175 175 177 176 174 173
244 236 235 237 236 238 242 249 250 252 243 234 236 238 234 229 231 230 226 219 213 212 206 197 193 186 182 178 176 175 176 178 178 180 181 178 172 173 174 173 180 181 180 178
241 246 244 241 240 241 241 241 245 250 264 258 249 244 235 230 228 228 226 224 219 211 208 196 192 189 183 182 179 179 178 180 181 176 172 169 168 171 181 187 189 187 185 183
252 251 251 244 240 237 244 241 246 250 252 249 230 245 231 227 227 224 220 218 220 218 211 202 192 188 185 183 179 178 178 180 180 176 178 179 183 188 192 188 186 185 187 186
257 259 252 246 241 238 243 248 245 248 251 254 237 245 238 219 224 221 216 213 214 217 213 206 193 187 184 180 178 178 178 180 179 180 183 185 189 191 181 179 183 188 192 192
259 263 265 258 252 241 243 244 252 249 243 242 230 227 243 219 220 217 214 212 211 211 213 207 193 183 184 179 177 177 178 181 181 183 186 189 191 186 180 184 188 191 193 195
269 252 241 247 258 241 226 218 218 218 221 233 215 220 237 225 224 216 209 206 203 202 204 203 192 185 182 178 177 178 180 183 183 185 189 193 195 191 189 188 189 188 190 196
280 268 239 231 232 230 219 213 218 216 212 225 210 220 226 227 236 228 210 200 196 196 201 201 195 186 181 178 180 181 184 186 186 188 192 195 195 196 196 192 190 191 194 195
297 285 291 265 242 224 221 217 230 266 276 254 216 215 220 212 229 234 227 206 195 194 195 196 192 185 180 179 182 184 187 189 189 190 192 195 196 196 197 193 189 191 191 189
291 287 284 278 261 219 222 209 212 222 228 239 233 219 213 198 212 218 218 210 201 194 191 187 187 185 182 181 181 182 187 191 190 191 193 196 197 198 196 191 192 191 190 185
286 281 287 280 240 223 204 209 216 225 238 240 237 230 208 202 200 201 203 198 195 198 193 184 180 178 173 172 177 182 185 189 190 191 192 193 195 196 195 195 194 192 187 184
299 287 281 273 253 224 211 212 211 216 230 232 261 268 307 283 196 192 196 191 185 186 182 170 167 161 158 169 175 180 185 188 190 190 189 191 192 193 195 197 196 191 188 187
313 297 302 289 200 259 232 221 232 237 249 243 235 254 318 340 6 52 144 177 172 167 155 142 139 153 160 163 173 181 184 186 185 184 186 188 189 192 195 196 192 189 187 186
317 261 257 281 299 287 274 257 242 232 227 242 242 267 311 334 344 357 14 12 152 150 140 136 144 152 158 162 167 173 181 182 182 182 184 187 190 191 192 190 188 187 185 185
310 273 277 283 284 278 263 262 246 232 232 232 254 276 300 319 329 350 2 14 30 54 91 102 120 127 136 149 158 165 175 178 179 183 186 188 185 183 183 183 182 181 181 181
277 275 290 287 284 281 267 256 248 240 242 249 263 272 302 311 339 3 15 31 28 27 39 55 78 106 138 159 165 165 176 182 180 183 184 177 175 176 177 177 176 174 175 175
252 263 289 281 294 292 262 246 233 228 234 246 253 276 335 342 352 358 11 22 21 17 14 15 15 114 164 177 176 177 179 175 176 177 173 169 169 171 171 167 169 173 175 173
233 251 259 279 290 255 239 331 268 226 231 273 274 305 326 313 311 350 13 6 357 356 354 349 344 334 124 139 159 162 157 161 165 163 164 165 165 167 163 163 169 172 172 175
217 225 247 266 275 275 295 327 295 256 230 327 307 314 326 319 308 338 353 355 343 340 337 325 321 325 88 128 137 143 150 153 155 159 165 167 164 162 163 166 168 167 167 170
210 214 230 252 265 269 344 336 319 262 220 353 333 330 340 346 317 306 338 340 341 343 342 339 343 17 85 104 130 136 150 153 160 165 164 160 159 162 164 164 162 158 158 160
234 229 230 243 252 269 337 338 349 201 304 341 353 344 343 335 304 309 324 329 332 332 335 343 348 355 108 101 115 141 152 161 158 152 149 150 152 155 155 151 149 149 148 148
242 243 235 237 246 260 356 2 4 295 313 331 341 339 333 322 315 320 323 327 335 333 330 338 345 341 354 110 120 132 155 145 138 142 142 143 142 141 143 143 145 146 147 147
241 232 237 230 249 300 323 316 310 312 316 323 326 325 325 322 319 320 321 326 330 328 325 331 336 333 334 45 135 143 132 127 130 135 136 134 134 137 143 147 147 147 149 152
266 265 266 270 268 296 306 316 317 317 315 315 319 320 320 314 313 313 313 317 319 320 324 326 327 323 322 327 24 141 139 133 133 137 136 136 137 137 136 140 147 152 156 155
274 278 270 269 280 294 285 304 312 312 313 315 315 312 307 304 303 304 306 304 304 306 307 309 303 293 293 297 110 137 146 141 141 141 140 138 136 135 129 118 119 142 154 163
254 256 257 264 274 277 288 304 309 308 307 309 311 307 302 295 293 294 292 293 295 296 294 293 290 288 290 283 203 169 159 154 151 149 146 143 139 134 130 119 92 69 100 121
Height
1414 1416 1412 1409 1409 1407 1404 1401 1399 1395 1393 1396 1395 1394 1395 1397 1398 1399 1401 1404 1408 1411 1416 1421 1425 1430 1436 1441 1445 1450 1455 1461 1467 1472 1476 1480 1484 1488 1493 1497 1501 1504 1508 1511
1412 1407 1403 1402 1403 1403 1403 1401 1398 1394 1389 1389 1390 1388 1388 1389 1390 1392 1394 1396 1400 1404 1408 1413 1418 1423 1428 1433 1439 1444 1449 1454 1460 1464 1469 1474 1479 1484 1489 1493 1497 1500 1504 1507
1404 1398 1397 1398 1398 1399 1398 1399 1397 1395 1390 1385 1387 1387 1383 1380 1382 1385 1387 1389 1392 1396 1400 1405 1410 1415 1420 1426 1431 1437 1442 1447 1453 1458 1465 1471 1477 1482 1485 1488 1491 1495 1499 1502
1398 1394 1394 1393 1393 1395 1394 1392 1393 1393 1395 1393 1390 1391 1379 1375 1375 1375 1377 1381 1385 1388 1393 1397 1402 1407 1413 1418 1425 1430 1435 1441 1446 1452 1458 1462 1467 1470 1474 1479 1484 1489 1494 1497
1394 1390 1390 1389 1387 1389 1390 1389 1390 1391 1393 1394 1388 1390 1377 1368 1368 1367 1368 1371 1376 1381 1385 1390 1394 1399 1405 1412 1418 1424 1430 1435 1440 1446 1450 1455 1460 1464 1470 1475 1480 1484 1488 1492
1390 1389 1388 1384 1382 1384 1385 1388 1389 1390 1393 1391 1383 1386 1375 1362 1357 1357 1359 1363 1368 1373 1378 1382 1388 1393 1399 1405 1411 1417 1423 1429 1434 1439 1444 1449 1453 1458 1464 1468 1472 1477 1481 1486
1385 1381 1381 1383 1382 1380 1382 1389 1393 1390 1387 1379 1370 1374 1366 1352 1347 1349 1352 1355 1360 1366 1371 1375 1380 1385 1391 1397 1403 1409 1416 1422 1427 1432 1437 1442 1447 1452 1456 1461 1465 1470 1474 1478
1390 1381 1376 1377 1379 1378 1377 1383 1384 1380 1376 1369 1362 1362 1354 1346 1343 1342 1345 1348 1353 1358 1364 1368 1373 1378 1383 1389 1395 1401 1408 1414 1420 1425 1430 1435 1441 1446 1451 1455 1459 1463 1467 1471
1394 1384 1375 1373 1373 1375 1375 1376 1377 1378 1369 1364 1354 1347 1343 1339 1339 1339 1341 1343 1346 1351 1357 1362 1367 1372 1377 1382 1388 1394 1400 1407 1413 1418 1423 1429 1434 1439 1444 1449 1454 1458 1461 1466
1397 1392 1378 1372 1370 1370 1372 1373 1377 1379 1374 1367 1353 1344 1343 1339 1338 1337 1338 1340 1343 1347 1352 1356 1361 1366 1371 1376 1382 1388 1393 1399 1405 1411 1417 1422 1427 1432 1437 1443 1447 1451 1455 1459
1397 1394 1381 1374 1371 1370 1372 1374 1375 1375 1371 1366 1357 1347 1330 1332 1332 1334 1335 1337 1340 1345 1348 1352 1356 1361 1366 1371 1376 1382 1387 1393 1399 1405 1410 1415 1421 1426 1431 1436 1441 1445 1450 1453
1396 1394 1387 1376 1371 1372 1373 1374 1376 1378 1372 1364 1362 1349 1328 1328 1328 1330 1332 1335 1338 1342 1346 1349 1353 1357 1361 1366 1371 1376 1381 1386 1392 1398 1404 1409 1414 1419 1424 1429 1434 1439 1443 1447
1396 1397 1392 1378 1377 1377 1376 1376 1376 1376 1371 1364 1361 1350 1332 1331 1329 1330 1333 1334 1337 1340 1344 1347 1350 1354 1357 1361 1365 1370 1375 1380 1386 1392 1397 1402 1407 1412 1417 1422 1427 1432 1437 1441
1395 1396 1396 1392 1386 1383 1380 1377 1375 1375 1371 1366 1357 1349 1342 1339 1337 1335 1335 1337 1337 1340 1342 1345 1348 1352 1355 1358 1361 1365 1369 1374 1380 1385 1390 1395 1400 1405 1410 1416 1421 1426 1431 1435
1396 1395 1390 1384 1378 1376 1375 1372 1371 1371 1367 1366 1356 1352 1350 1348 1345 1341 1340 1340 1340 1341 1343 1345 1347 1350 1353 1355 1358 1361 1365 1369 1374 1379 1384 1389 1394 1400 1405 1410 1415 1420 1425 1430
1395 1395 1389 1381 1372 1369 1367 1365 1365 1364 1364 1361 1357 1354 1351 1350 1348 1345 1344 1344 1344 1344 1345 1346 1347 1349 1351 1353 1355 1358 1361 1365 1369 1374 1378 1384 1389 1394 1399 1404 1409 1415 1419 1424
1395 1395 1392 1383 1372 1368 1366 1359 1358 1359 1360 1360 1358 1357 1354 1351 1351 1350 1348 1347 1347 1347 1347 1347 1347 1348 1350 1351 1353 1355 1358 1361 1365 1369 1374 1379 1384 1389 1394 1399 1404 1409 1414 1418
1393 1393 1392 1385 1378 1375 1364 1356 1355 1356 1359 1360 1358 1356 1356 1354 1352 1351 1350 1350 1349 1349 1348 1347 1347 1348 1348 1350 1351 1353 1356 1358 1362 1366 1370 1374 1379 1384 1389 1394 1399 1404 1409 1413
1384 1389 1390 1385 1379 1367 1360 1358 1358 1357 1359 1360 1359 1357 1356 1353 1350 1350 1350 1350 1350 1349 1348 1348 1347 1347 1347 1348 1349 1351 1353 1356 1359 1362 1366 1370 1375 1379 1384 1388 1393 1399 1404 1408
1378 1382 1388 1384 1380 1368 1365 1359 1356 1357 1361 1361 1359 1358 1357 1354 1354 1353 1351 1350 1349 1348 1347 1347 1346 1346 1346 1347 1348 1349 1351 1354 1357 1360 1364 1368 1372 1376 1380 1384 1389 1394 1400 1404
1381 1382 1384 1383 1378 1369 1365 1360 1356 1364 1368 1363 1361 1359 1358 1357 1357 1354 1351 1350 1348 1347 1346 1346 1345 1345 1345 1345 1346 1348 1349 1352 1355 1358 1362 1365 1369 1373 1377 1382 1386 1391 1396 1401
1379 1381 1380 1379 1378 1373 1364 1361 1365 1367 1364 1362 1361 1360 1358 1356 1354 1352 1350 1348 1346 1345 1345 1344 1344 1344 1344 1345 1345 1346 1348 1351 1353 1356 1360 1363 1367 1371 1375 1379 1384 1388 1393 1397
1374 1375 1375 1374 1373 1367 1364 1364 1364 1363 1362 1361 1360 1358 1356 1354 1352 1350 1348 1346 1345 1344 1343 1342 1342 1342 1343 1344 1344 1345 1347 1349 1352 1354 1358 1361 1365 1369 1373 1377 1381 1385 1390 1394
1370 1369 1370 1369 1364 1363 1363 1362 1362 1361 1360 1359 1357 1356 1354 1352 1350 1348 1346 1345 1343 1342 1341 1341 1340 1340 1340 1342 1343 1344 1346 1347 1349 1352 1356 1359 1363 1367 1371 1375 1379 1383 1387 1391
1370 1369 1368 1366 1364 1362 1360 1360 1360 1358 1357 1355 1354 1352 1351 1350 1347 1345 1343 1342 1341 1340 1339 1339 1338 1338 1339 1340 1341 1342 1343 1345 1347 1350 1353 1357 1361 1364 1369 1373 1377 1381 1385 1389
1366 1367 1367 1364 1362 1361 1359 1358 1357 1355 1353 1351 1349 1347 1347 1346 1344 1342 1341 1339 1338 1336 1336 1336 1336 1335 1336 1337 1337 1339 1340 1342 1345 1347 1351 1354 1358 1362 1366 1370 1374 1379 1384 1388